Regional Weather Roundup
Issued by NWS Charleston, WV

Home | Current Version | Previous Version | Text Only | Print | Product List | Glossary On
Versions: 1 2 3 4 5 6 7 8 9 10 11 12 13 14 15 16 17 18 19 20 21 22 23 24 25 26 27 28 29 30 31 32 33 34 35 36 37 38 39 40 41 42 43 44 45 46 47 48 49
000
ASUS41 KRLX 021010
RWRRLX
West Virginia Regional Weather Roundup
National Weather Service Charleston WV
600 AM EDT WED SEP 02 2015

Note: "fair" indicates few or no clouds below 12,000 feet with no
significant weather and/or obstructions to visibility.

WVZ003-021100-
Northern Panhandle of West Virginia

CITY           SKY/WX    TMP DP  RH WIND       PRES   REMARKS
WHEELING       MOCLDY    69  66  90 CALM      30.11R FOG
$$

WVZ009-021100-
Northwest West Virginia

CITY           SKY/WX    TMP DP  RH WIND       PRES   REMARKS
PARKERSBURG    PTCLDY    68  66  93 CALM      30.13S
$$

WVZ006-021100-
Western West Virginia

CITY           SKY/WX    TMP DP  RH WIND       PRES   REMARKS
HUNTINGTON     FOG       65  65 100 CALM      30.11S VSB 1/4
$$

WVZ015-021100-
West Central West Virginia

CITY           SKY/WX    TMP DP  RH WIND       PRES   REMARKS
CHARLESTON     PTCLDY    66  64  93 CALM      30.12R
$$

WVZ022-031-021100-
North Central West Virginia

CITY           SKY/WX    TMP DP  RH WIND       PRES   REMARKS
CLARKSBURG     PTCLDY    68  66  93 CALM      30.12S
MORGANTOWN     PTCLDY    69  64  84 CALM      30.13R HAZE
$$

WVZ025-035-042-045-021100-
Southern West Virginia

CITY           SKY/WX    TMP DP  RH WIND       PRES   REMARKS
BECKLEY        CLEAR     63  60  90 CALM      30.20S FOG
LOGAN          FOG       66  66 100 CALM      30.15S VSB<1/4
BLUEFIELD      CLEAR     66  61  84 W3        30.22S
LEWISBURG      FOG       63  61  94 CALM      30.20R VSB 1/4
$$

WVZ047-021100-
Northern Mountains of West Virginia

CITY           SKY/WX    TMP DP  RH WIND       PRES   REMARKS
ELKINS         PTCLDY    64  62  93 CALM      30.18R FOG
$$

WVZ052-021100-
Eastern Panhandle of West Virginia

CITY           SKY/WX    TMP DP  RH WIND       PRES   REMARKS
MARTINSBURG    PTCLDY    66  64  93 CALM      30.07R FOG
PETERSBURG     MOCLDY    67  66  97 CALM      30.12S FOG
$$



USA.gov is the U.S. government's official web portal to all federal, state and local government web resources and services.